Thief River Falls, MN

3:39 PM CDT on April 26, 2017 (GMT -0500)
Thief River Falls Regional

Weather History for KTVF - November, 2012

Change the Weather History Date:

Tuesday, November 27, 2012

  Actual Average Record
Temperature  
Mean Temperature 12 °F -  
Max Temperature 19 °F 26 °F 39 °F (1997)
Min Temperature 6 °F 14 °F -25 °F (1985)
Degree Days  
Heating Degree Days 52    
Moisture  
Dew Point 8 °F    
Average Humidity 81    
Maximum Humidity 92    
Minimum Humidity 33    
Precipitation  
Precipitation 0.00 in - - ()
Sea Level Pressure  
Sea Level Pressure 30.13 in    
Wind  
Wind Speed 9 mph (WNW)    
Max Wind Speed 14 mph    
Max Gust Speed 17 mph    
Visibility 8 miles    
Events      
Averages and records for this station are not official NWS values.
T = Trace of Precipitation, MM = Missing Value Source: NWS Daily Summary

Daily Weather History Graph

Daily Weather History Graph

Search for Another Location

Airport or City:

Trip Planner

Search our weather history database for the weather conditions in past years. The results will help you decide how hot, cold, wet, or windy it might be!

Date:

Astronomy

Nov. 27, 2012 Rise Set
Actual Time 7:49 AM CST 4:35 PM CST
Civil Twilight 7:14 AM CST 5:10 PM CST
Nautical Twilight 6:35 AM CST 5:49 PM CST
Astronomical Twilight 5:57 AM CST 6:26 PM CST
Moon 4:08 PM CST (11/27) 6:53 AM CST (11/27)
Length of Visible Light 9h 56m
Length of Day
8h 46m
Waxing Gibbous, 99% of the Moon is Illuminated
Nov 27
Waxing Gibbous
Nov 28
Full
Dec 6
Last Quarter
Dec 13
New
Dec 19
First Quarter

Hourly Weather History & Observations

Time (CST) Temp. Windchill Dew Point Humidity Pressure Visibility Wind Dir Wind Speed Gust Speed Precip Events Conditions
12:15 AM - - - N/A% 30.11 in 3.0 mi SSW 13.8 mph - N/A   Overcast
12:35 AM - - - N/A% 30.11 in 3.0 mi SW 10.4 mph - N/A   Overcast
12:55 AM - - - N/A% 30.10 in 5.0 mi SW 9.2 mph - N/A   Overcast
1:15 AM - - - N/A% 30.10 in 7.0 mi SW 11.5 mph - N/A   Overcast
1:35 AM - - - N/A% 30.10 in 4.0 mi SW 13.8 mph 17.3 mph N/A   Overcast
1:55 AM - - - N/A% 30.09 in 7.0 mi SW 13.8 mph - N/A   Overcast
2:15 AM - - - N/A% 30.09 in 5.0 mi SW 12.7 mph - N/A   Overcast
2:35 AM - - - N/A% 30.09 in 3.0 mi SSW 12.7 mph - N/A   Overcast
2:55 AM - - - N/A% 30.09 in 3.0 mi SW 11.5 mph - N/A   Overcast
3:15 AM - - - N/A% 30.08 in 3.0 mi SW 11.5 mph - N/A   Overcast
3:35 AM - - - N/A% 30.07 in 3.0 mi SW 9.2 mph - N/A   Overcast
3:55 AM - - - N/A% 30.07 in 3.0 mi SW 9.2 mph - N/A   Overcast
4:15 AM - - - N/A% 30.07 in 5.0 mi SW 10.4 mph - N/A   Overcast
4:35 AM - - - N/A% 30.07 in 4.0 mi SW 9.2 mph - N/A   Overcast
4:55 AM - - - N/A% 30.07 in 4.0 mi SW 9.2 mph - N/A   Overcast
5:15 AM - - - N/A% 30.07 in 6.0 mi SW 8.1 mph - N/A   Overcast
5:55 AM - - - N/A% 30.06 in 10.0 mi SW 4.6 mph - N/A   Mostly Cloudy
6:15 AM - - - N/A% 30.06 in 7.0 mi WSW 5.8 mph - N/A   Mostly Cloudy
6:35 AM - - - N/A% 30.07 in 6.0 mi West 5.8 mph - N/A   Mostly Cloudy
6:55 AM - - - N/A% 30.07 in 4.0 mi West 3.5 mph - N/A   Mostly Cloudy
7:15 AM - - - N/A% 30.07 in 3.0 mi WNW 4.6 mph - N/A   Overcast
7:35 AM - - - N/A% 30.07 in 5.0 mi WNW 4.6 mph - N/A   Mostly Cloudy
7:55 AM - - - N/A% 30.07 in 8.0 mi NW 4.6 mph - N/A   Mostly Cloudy
8:15 AM - - - N/A% 30.08 in 7.0 mi NNW 5.8 mph - N/A   Overcast
8:35 AM - - - N/A% 30.09 in 10.0 mi NNW 9.2 mph - N/A   Overcast
8:55 AM - - - N/A% 30.09 in 10.0 mi NNW 8.1 mph - N/A   Overcast
9:15 AM - - - N/A% 30.10 in 10.0 mi North 9.2 mph - N/A   Overcast
9:35 AM - - - N/A% 30.09 in 10.0 mi North 9.2 mph - N/A   Overcast
9:55 AM - - - N/A% 30.10 in 10.0 mi North 8.1 mph - N/A   Overcast
10:15 AM - - - N/A% 30.11 in 10.0 mi North 8.1 mph - N/A   Partly Cloudy
10:35 AM - - - N/A% 30.12 in 10.0 mi NNW 8.1 mph - N/A   Mostly Cloudy
10:55 AM - - - N/A% 30.12 in 10.0 mi North 8.1 mph - N/A   Overcast
11:15 AM - - - N/A% 30.12 in 1.8 mi NNW 8.1 mph - N/A   Overcast
11:35 AM - - - N/A% 30.12 in 3.0 mi NNW 5.8 mph - N/A   Overcast
11:55 AM - - - N/A% 30.11 in 5.0 mi NNW 5.8 mph - N/A   Overcast
12:15 PM 19.4 °F 11.5 °F -5.8 °F 33% 30.11 in 10.0 mi NW 5.8 mph - N/A   Scattered Clouds
12:35 PM 17.6 °F 9.3 °F 12.2 °F 79% 30.11 in 10.0 mi NW 5.8 mph - N/A   Clear
12:55 PM 17.6 °F 8.2 °F 14.0 °F 86% 30.11 in 10.0 mi NW 6.9 mph - N/A   Partly Cloudy
1:15 PM 17.6 °F 5.7 °F 12.2 °F 79% 30.11 in 10.0 mi NW 10.4 mph - N/A   Mostly Cloudy
1:35 PM 17.6 °F 5.7 °F 12.2 °F 79% 30.12 in 10.0 mi NW 10.4 mph - N/A   Overcast
1:55 PM 17.6 °F 7.3 °F 12.2 °F 79% 30.11 in 10.0 mi WNW 8.1 mph - N/A   Overcast
2:15 PM 17.6 °F 6.4 °F 12.2 °F 79% 30.12 in 10.0 mi NW 9.2 mph - N/A   Overcast
2:35 PM 17.6 °F 6.4 °F 12.2 °F 79% 30.13 in 10.0 mi WNW 9.2 mph - N/A   Overcast
2:55 PM 17.6 °F 6.4 °F 10.4 °F 73% 30.13 in 10.0 mi NW 9.2 mph - N/A   Scattered Clouds
3:15 PM 15.8 °F 5.1 °F 12.2 °F 86% 30.14 in 10.0 mi WNW 8.1 mph - N/A   Scattered Clouds
3:35 PM 15.8 °F 4.2 °F 12.2 °F 86% 30.15 in 10.0 mi West 9.2 mph - N/A   Scattered Clouds
4:15 PM 12.2 °F 0.7 °F 6.8 °F 79% 30.16 in 10.0 mi WNW 8.1 mph - N/A   Clear
4:35 PM 10.4 °F 0.8 °F 6.8 °F 85% 30.16 in 10.0 mi WNW 5.8 mph - N/A   Clear
4:55 PM 10.4 °F 0.8 °F 3.2 °F 73% 30.17 in 10.0 mi WNW 5.8 mph - N/A   Clear
5:15 PM 8.6 °F 0.1 °F 5.0 °F 85% 30.17 in 10.0 mi WNW 4.6 mph - N/A   Clear
5:55 PM 8.6 °F 0.1 °F 3.2 °F 79% 30.18 in 10.0 mi West 4.6 mph - N/A   Scattered Clouds
6:15 PM 8.6 °F 0.1 °F 3.2 °F 79% 30.19 in 10.0 mi West 4.6 mph - N/A   Partly Cloudy
6:35 PM 6.8 °F -2.0 °F 3.2 °F 85% 30.19 in 10.0 mi WNW 4.6 mph - N/A   Mostly Cloudy
6:55 PM 10.4 °F 4.0 °F 6.8 °F 85% 30.20 in 10.0 mi WNW 3.5 mph - N/A   Overcast
7:15 PM 10.4 °F 4.0 °F 6.8 °F 85% 30.20 in 10.0 mi WNW 3.5 mph - N/A   Overcast
7:35 PM 8.6 °F 0.1 °F 6.8 °F 92% 30.20 in 10.0 mi NW 4.6 mph - N/A   Mostly Cloudy
7:55 PM 10.4 °F 4.0 °F 6.8 °F 85% 30.20 in 10.0 mi NW 3.5 mph - N/A   Overcast
8:15 PM 10.4 °F - 3.2 °F 73% 30.21 in 10.0 mi Calm Calm - N/A   Overcast
8:35 PM 10.4 °F - 6.8 °F 85% 30.21 in 10.0 mi Calm Calm - N/A   Overcast
8:55 PM 10.4 °F - 6.8 °F 85% 30.22 in 10.0 mi Calm Calm - N/A   Overcast
9:15 PM 10.4 °F - 8.6 °F 92% 30.23 in 10.0 mi Calm Calm - N/A   Overcast
9:35 PM 12.2 °F - 6.8 °F 79% 30.23 in 10.0 mi Calm Calm - N/A   Overcast
9:55 PM 12.2 °F - 8.6 °F 85% 30.24 in 10.0 mi Calm Calm - N/A   Overcast
10:15 PM 12.2 °F - 8.6 °F 85% 30.24 in 10.0 mi Calm Calm - N/A   Overcast
10:55 PM 12.2 °F - 8.6 °F 85% 30.24 in 10.0 mi Calm Calm - N/A   Overcast
11:15 PM 10.4 °F - 6.8 °F 85% 30.24 in 10.0 mi Calm Calm - N/A   Scattered Clouds
11:55 PM 8.6 °F - 6.8 °F 92% 30.25 in 7.0 mi Calm Calm - N/A   Clear